Location: Haulchin
(50.3172°N, 3.4360°E)
Time: 15:09:54
(UTC+00:00)

MSX - Pass Details

Date: 23 May 2024
Orbit: 893 x 906 km, 99.0° (Epoch: 18 June)

Event Time Altitude Azimuth Distance (km) Brightness Sun altitude
Rises 02:02:42 0° 14° (NNE) 3,527 8.4 -12.6°
Reaches altitude 10° 02:05:07 10° 13° (NNE) 2,581 7.4 -12.4°
Maximum altitude 02:10:52 78° 289° (WNW) 919 3.9 -11.9°
Enters shadow 02:15:47 14° 204° (SSW) 2,261 5.3 -11.4°
